Location: Bremen
(53.0796°N, 8.8241°E)
Time: 03:16:11
(UTC+02:00)

ISS - Visible Passes

Search period start: 25 May 2017 00:00
Search period end: 04 June 2017 00:00
Orbit: 402 x 409 km, 51.6° (Epoch: 25 May)

Date Brightness Start Highest point End Pass type
(mag) Time Alt. Az. Time Alt. Az. Time Alt. Az.
25 May -4.0 01:05:53 10° WSW 01:09:11 68° S 01:12:28 10° E visible
25 May -3.7 02:42:19 10° W 02:45:32 51° SSW 02:48:44 10° ESE visible
25 May -2.3 04:19:15 10° W 04:21:33 18° SW 04:23:49 10° S visible
25 May -2.7 22:38:16 10° SSW 22:41:02 25° SSE 22:43:48 10° E visible
26 May -3.9 00:13:55 10° WSW 00:17:11 61° S 00:20:27 10° E visible
26 May -3.9 01:50:18 10° W 01:53:34 61° S 01:56:49 10° ESE visible
26 May -2.8 03:26:56 10° W 03:29:43 25° SSW 03:32:28 10° SSE visible
26 May -3.7 23:22:00 10° WSW 23:25:11 50° SSE 23:28:25 10° E visible
27 May -3.9 00:58:16 10° W 01:01:33 68° S 01:04:50 10° E visible
27 May -3.2 02:34:47 10° W 02:37:49 35° SSW 02:40:51 10° SE visible
27 May -3.3 22:30:08 10° SW 22:33:14 38° SSE 22:36:20 10° E visible
28 May -3.9 00:06:15 10° W 00:09:32 69° S 00:12:49 10° E visible
28 May -3.6 01:42:41 10° W 01:45:52 46° SSW 01:47:25 25° SE visible
28 May -1.5 03:19:49 10° WSW 03:19:57 11° WSW 03:19:57 11° WSW visible
28 May -3.9 23:14:13 10° WSW 23:17:29 64° S 23:20:46 10° E visible
29 May -3.8 00:50:37 10° W 00:53:52 58° SSW 00:55:59 19° ESE visible
29 May -2.0 02:27:20 10° W 02:28:36 17° WSW 02:28:36 17° WSW visible
29 May -3.7 22:22:13 10° WSW 22:25:27 54° SSE 22:28:42 10° E visible
29 May -3.9 23:58:32 10° W 00:01:50 66° S 00:05:06 10° ESE visible
30 May -2.9 01:35:05 10° W 01:37:43 30° SW 01:37:43 30° SW visible
30 May -3.9 23:06:28 10° W 23:09:46 70° S 23:13:03 10° E visible
31 May -3.4 00:42:56 10° W 00:46:04 42° SSW 00:47:00 32° SSE visible
31 May -3.7 23:50:49 10° W 23:54:03 53° SSW 23:56:24 17° ESE visible
01 Jun -1.9 01:27:39 10° W 01:29:01 17° WSW 01:29:01 17° WSW visible
01 Jun -3.8 22:58:42 10° W 23:01:59 64° S 23:05:15 10° ESE visible
02 Jun -2.8 00:35:18 10° W 00:38:09 27° SSW 00:38:28 27° SSW visible
02 Jun -3.2 23:43:04 10° W 23:46:10 37° SSW 23:47:56 20° SE visible
03 Jun -3.5 22:50:54 10° W 22:54:07 49° SSW 22:57:19 10° ESE visible
